[[[{"header":{"parameterUnit":"kt","parameterCategory":2,"dx":1,"dy":1,"la1":30.253999710083008,"la2":30.299108505249023,"lo1":-89.0895004272461,"lo2":-89.04439544677734,"nx":28,"ny":28,"refTime":"2022-10-18T21:00:00:Z","depth":"0","parameterNumber":2,"parameterNumberName":"U-component_of_CURRENTS"},"data":[-0.1204,-0.111,-0.1111,-0.1044,-0.1043,-0.099,-0.0978,-0.1039,-0.1203,-0.1492,-0.1778,-0.2006,-0.203,-0.2075,-0.1846,-0.171,-0.1528,-0.1602,-0.1586,-0.1448,-0.1447,-0.1447,-0.1411,-0.1449,-0.1449,-0.1309,-0.1308,-0.1307,-0.1301,-0.1262,-0.1232,-0.1192,-0.1179,-0.1207,-0.1212,-0.122,-0.1279,-0.1511,-0.1644,-0.1925,-0.2,-0.2045,-0.2081,-0.2012,-0.1848,-0.1881,-0.167,-0.1609,-0.172,-0.1699,-0.1799,-0.1799,-0.1799,-0.1799,-0.1799,-0.18,-0.1456,-0.1401,-0.1378,-0.1348,-0.134,-0.1324,-0.1293,-0.1366,-0.1408,-0.1523,-0.1612,-0.178,-0.1912,-0.221,-0.2191,-0.2114,-0.2172,-0.1976,-0.1981,-0.1987,-0.1931,-0.2191,-0.234,-0.2341,-0.2342,-0.2343,-0.2343,0,-0.1562,-0.1554,-0.1529,-0.1502,-0.1478,-0.1462,-0.1465,-0.1479,-0.1551,-0.1601,-0.1651,-0.1703,-0.1881,-0.1967,-0.2177,-0.2149,-0.1916,-0.2042,-0.1878,-0.1625,-0.167,-0.1594,-0.1693,-0.1788,-0.1786,-0.1785,-0.1784,-0.1783,-0.1646,-0.164,-0.1632,-0.1612,-0.161,-0.1594,-0.1579,-0.1627,-0.1635,-0.1696,-0.1678,-0.1739,-0.1767,-0.187,-0.1929,-0.2011,-0.185,-0.1982,-0.1881,-0.1791,-0.1774,-0.1768,-0.1706,-0.1762,-0.1765,-0.1767,-0.1769,0,-0.1657,-0.1703,-0.1693,-0.1711,-0.1707,-0.1677,-0.1692,-0.1683,-0.1718,-0.1699,-0.1689,-0.1686,-0.1705,-0.1699,-0.1639,-0.1672,-0.1665,-0.1737,-0.1672,-0.1667,-0.1732,-0.1725,-0.1837,-0.1782,-0.1954,-0.1959,-0.1964,0,-0.1704,-0.1708,-0.174,-0.1739,-0.1722,-0.175,-0.1738,-0.1723,-0.1727,-0.1708,-0.1692,-0.1665,-0.1572,-0.1567,-0.152,-0.1585,-0.1483,-0.158,-0.1578,-0.1462,-0.1471,-0.1335,-0.1318,-0.1343,-0.1342,-0.1341,-0.134,0,-0.1707,-0.1736,-0.1758,-0.1759,-0.1773,-0.1767,-0.1763,-0.174,-0.1725,-0.1691,-0.1687,-0.1618,-0.1567,-0.152,-0.147,-0.1418,-0.1434,-0.1339,-0.1517,-0.1531,-0.1438,-0.1447,-0.1367,-0.1339,-0.1339,-0.1339,-0.1339,0,-0.1731,-0.174,-0.1767,-0.178,-0.1782,-0.1779,-0.1757,-0.1745,-0.1701,-0.1679,-0.1631,-0.1574,-0.1509,-0.1466,-0.1396,-0.1379,-0.1358,-0.1316,-0.1316,-0.1487,-0.1453,-0.1468,-0.1514,-0.1365,-0.1334,-0.1334,-0.1333,0,-0.1724,-0.1747,-0.1761,-0.177,-0.1772,-0.1755,-0.1745,-0.1711,-0.168,-0.165,-0.1564,-0.1502,-0.145,-0.1405,-0.1374,-0.1287,-0.1299,-0.1274,-0.1247,-0.1249,-0.1451,-0.1508,-0.1403,-0.1499,-0.1326,-0.1327,-0.1327,0,-0.1707,-0.1741,-0.1739,-0.1744,-0.1736,-0.1722,-0.1711,-0.168,-0.1662,-0.1614,-0.1585,-0.1467,-0.1438,-0.138,-0.1302,-0.1274,-0.1291,-0.1236,-0.1233,-0.1314,-0.1279,-0.1474,-0.1498,-0.1222,-0.1222,-0.1222,-0.1321,0,-0.1697,-0.1715,-0.1723,-0.1727,-0.1718,-0.1715,-0.1684,-0.1664,-0.1633,-0.16,-0.1527,-0.145,-0.1374,-0.1321,-0.1272,-0.1221,-0.123,-0.1174,-0.1186,-0.1175,-0.1219,-0.1224,-0.1154,-0.1153,-0.1153,-0.1152,0,0,-0.1668,-0.1694,-0.1687,-0.1689,-0.1685,-0.1653,-0.1657,-0.1622,-0.1577,-0.1557,-0.1548,-0.1409,-0.1347,-0.1258,-0.1246,-0.1198,-0.12,-0.1209,-0.1166,-0.1167,-0.1169,-0.1211,-0.1217,-0.1151,-0.1151,-0.115,-0.115,0,-0.1658,-0.167,-0.169,-0.1676,-0.1663,-0.1643,-0.1639,-0.1607,-0.1583,-0.1543,-0.1489,-0.1434,-0.1339,-0.1287,-0.1237,-0.1194,-0.1182,-0.1147,-0.1191,-0.116,-0.1163,-0.1165,-0.1207,-0.1213,-0.1148,-0.1148,-0.1148,0,-0.1634,-0.1637,-0.1651,-0.1647,-0.1634,-0.1629,-0.1596,-0.1582,-0.1565,-0.151,-0.1482,-0.1422,-0.1334,-0.1279,-0.1248,-0.1247,-0.1185,-0.117,-0.1171,-0.1199,-0.1167,-0.117,-0.1171,-0.1155,-0.1156,-0.1156,0,0,-0.162,-0.1639,-0.1628,-0.1645,-0.1642,-0.1605,-0.1589,-0.1572,-0.1536,-0.1517,-0.148,-0.1421,-0.1351,-0.1323,-0.1269,-0.1213,-0.1217,-0.1175,-0.1175,-0.1175,-0.1203,-0.1171,-0.1173,-0.1158,-0.1158,-0.1159,0,0,-0.1609,-0.1618,-0.1622,-0.1642,-0.1624,-0.1585,-0.158,-0.155,-0.1506,-0.1507,-0.1455,-0.1442,-0.1386,-0.1345,-0.1378,-0.1263,-0.1257,-0.125,-0.131,-0.1308,-0.1308,-0.136,-0.1355,0,0,0,0,0,-0.1603,-0.162,-0.1624,-0.1627,-0.1613,-0.1589,-0.158,-0.1557,-0.154,-0.153,-0.1491,-0.1467,-0.1352,-0.1381,-0.1365,-0.1337,-0.1183,-0.1179,-0.1175,-0.1236,-0.1235,-0.1235,0,0,0,0,0,0,-0.1605,-0.161,-0.1623,-0.1594,-0.159,-0.1588,-0.1575,-0.1567,-0.1542,-0.154,-0.1475,-0.1465,-0.1439,-0.1386,-0.1372,-0.1346,-0.136,-0.1181,-0.1178,-0.1174,-0.1236,-0.1235,-0.1235,0,0,0,0,0,-0.1605,-0.1609,-0.1608,-0.1591,-0.1588,-0.1559,-0.1576,-0.1569,-0.1539,-0.1497,-0.1487,-0.1526,-0.1439,-0.1425,-0.1378,-0.1354,-0.1369,-0.1364,-0.1179,-0.1176,-0.1173,-0.1236,0,0,0,0,0,0,-0.1606,-0.1578,-0.1605,-0.1601,-0.1603,-0.1558,-0.1555,-0.1571,-0.1496,-0.1488,-0.1548,-0.1548,-0.1439,-0.1428,-0.1417,-0.1358,-0.1377,-0.1372,-0.1369,-0.1177,-0.1175,-0.1172,0,0,0,0,0,0,-0.1576,-0.1575,-0.1602,-0.1619,-0.1616,-0.1557,-0.1555,-0.15,-0.1495,-0.1549,-0.1547,-0.1549,-0.1456,-0.143,-0.1421,-0.1335,-0.1383,-0.1378,-0.1374,-0.1372,-0.1175,-0.1173,0,0,0,0,0,0,-0.1574,-0.1573,-0.162,-0.1618,-0.1615,-0.1559,-0.1504,-0.1488,-0.1523,-0.1551,-0.1526,-0.1527,-0.1459,-0.1449,-0.1424,-0.1341,-0.1336,-0.1383,-0.1379,-0.1377,-0.1375,0,0,0,0,0,0,0,-0.1572,-0.1599,-0.1639,-0.1616,-0.1614,-0.1563,-0.1561,-0.1559,-0.1524,-0.1525,-0.1526,-0.1526,-0.1411,-0.1406,-0.14,-0.1347,0,0,-0.1383,-0.1381,0,0,0,0,0,0,0,0,-0.1598,-0.1599,-0.1639,-0.1639,-0.1638,-0.1563,-0.1561,-0.156,-0.1524,-0.1525,-0.1525,-0.1526,-0.141,-0.1405,-0.1401,0,0,0,0,0,0,0,0,0,0,0,0,0,0,0,-0.1639,-0.1639,0,-0.1563,-0.1561,-0.156,-0.1524,-0.1525,-0.1525,-0.1526,-0.1408,-0.1405,-0.1401,0,0,0,0,0,0,0,0,0,0,0,0,0,0,0,0,0,0,0,0,0,0,0,0,0,0,0,0,0,0,0,0,0,0,0,0,0,0,0,0,0,0,0,0,0,0,0,0,0,0,0,0,0,0,0,0,0,0,0,0,0,0,0,0,0,0,0,0,0]}],[{"header":{"parameterUnit":"kt","parameterCategory":2,"dx":1,"dy":1,"la1":30.253999710083008,"la2":30.299108505249023,"lo1":-89.0895004272461,"lo2":-89.04439544677734,"nx":28,"ny":28,"refTime":"2022-10-18T21:00:00:Z","depth":"0","parameterNumber":3,"parameterNumberName":"V-component_of_CURRENTS"},"data":[-0.1247,-0.1351,-0.1407,-0.1598,-0.1663,-0.1815,-0.1893,-0.205,-0.2163,-0.2277,-0.2186,-0.2105,-0.1143,0.0171,0.1015,0.1076,0.134,0.1256,0.1349,0.1107,0.1059,0.1013,0.1126,0.1477,0.1479,0.1936,0.1941,0.1944,-0.1225,-0.1291,-0.1343,-0.1454,-0.1551,-0.1542,-0.1649,-0.1758,-0.1935,-0.2061,-0.2189,-0.1832,-0.1384,-0.0838,0.0029,0.0345,0.045,0.0491,0.0667,0.0716,0.018,0.0266,0.044,0.0439,0.0439,0.0439,0.0438,0.0438,-0.1203,-0.1237,-0.1297,-0.136,-0.1405,-0.1496,-0.1549,-0.1627,-0.1719,-0.1851,-0.1845,-0.1931,-0.147,-0.115,-0.0954,-0.032,-0.0441,-0.0123,-0.0061,-0.0042,0.0125,-0.0566,-0.0507,-0.0508,-0.0509,-0.051,-0.0511,0,-0.1222,-0.1247,-0.1254,-0.1321,-0.1349,-0.1381,-0.1403,-0.1438,-0.1455,-0.1487,-0.1584,-0.1622,-0.1486,-0.13,-0.1083,-0.0965,-0.0488,-0.0691,-0.0395,-0.0033,-0.0008,0.0071,-0.0598,-0.0506,-0.0508,-0.0509,-0.0509,-0.051,-0.1272,-0.1265,-0.1284,-0.1309,-0.1302,-0.1294,-0.1314,-0.1283,-0.1312,-0.1315,-0.1343,-0.1314,-0.1366,-0.1252,-0.1021,-0.0907,-0.0724,-0.0724,-0.0607,-0.037,-0.0304,-0.0262,-0.0182,-0.0524,-0.0522,-0.0521,-0.052,0,-0.1305,-0.1321,-0.1306,-0.1296,-0.1291,-0.1276,-0.1273,-0.1268,-0.1227,-0.1234,-0.1207,-0.1154,-0.1138,-0.104,-0.0953,-0.0848,-0.0648,-0.078,-0.075,-0.0755,-0.0434,-0.0365,-0.015,-0.0042,-0.0757,-0.0757,-0.0757,0,-0.1362,-0.1334,-0.1358,-0.1343,-0.1311,-0.1311,-0.1266,-0.1232,-0.1199,-0.12,-0.1088,-0.1082,-0.093,-0.0902,-0.0842,-0.0798,-0.0783,-0.0723,-0.0738,-0.0657,-0.0656,-0.0384,-0.0305,-0.0662,-0.0661,-0.0661,-0.066,0,-0.1419,-0.1408,-0.1381,-0.1384,-0.1381,-0.1344,-0.1325,-0.128,-0.1264,-0.1163,-0.1154,-0.099,-0.0945,-0.0858,-0.0825,-0.0808,-0.0773,-0.0742,-0.0745,-0.0752,-0.0645,-0.0645,-0.0295,-0.0659,-0.0659,-0.0659,-0.0658,0,-0.1476,-0.1496,-0.1451,-0.1449,-0.1454,-0.1407,-0.1383,-0.1332,-0.126,-0.1236,-0.1122,-0.1061,-0.0918,-0.0923,-0.08,-0.0823,-0.0806,-0.0791,-0.0793,-0.0774,-0.0828,-0.0856,-0.0751,-0.0464,-0.0892,-0.0893,-0.0893,0,-0.1526,-0.1526,-0.1577,-0.1519,-0.1528,-0.1569,-0.1503,-0.1468,-0.144,-0.1374,-0.1254,-0.1114,-0.1068,-0.0999,-0.0929,-0.0858,-0.0829,-0.0841,-0.0838,-0.0839,-0.0899,-0.0804,-0.0705,-0.0768,-0.0904,-0.0903,-0.0902,0,-0.1608,-0.1687,-0.1687,-0.1705,-0.1753,-0.175,-0.1668,-0.1637,-0.1603,-0.1511,-0.1434,-0.1156,-0.1148,-0.1026,-0.0942,-0.0892,-0.0857,-0.0908,-0.0905,-0.1007,-0.0818,-0.0824,-0.0819,-0.0829,-0.0826,-0.0823,-0.091,0,-0.1699,-0.1742,-0.1736,-0.183,-0.1826,-0.1809,-0.1842,-0.1803,-0.1802,-0.1785,-0.1587,-0.1435,-0.1254,-0.1176,-0.1108,-0.0939,-0.0992,-0.0965,-0.1022,-0.0932,-0.0985,-0.0979,-0.1054,-0.1054,-0.1054,-0.1054,0,0,-0.1768,-0.1858,-0.1988,-0.2001,-0.2012,-0.2095,-0.2065,-0.2038,-0.1981,-0.1938,-0.1944,-0.1614,-0.1469,-0.1228,-0.1174,-0.1094,-0.1109,-0.1098,-0.0962,-0.0952,-0.0943,-0.0989,-0.0983,-0.1053,-0.1053,-0.1053,-0.1053,0,-0.1859,-0.1986,-0.2015,-0.2047,-0.2111,-0.2138,-0.2139,-0.2169,-0.2146,-0.2011,-0.1946,-0.1791,-0.1532,-0.1404,-0.1296,-0.1117,-0.1117,-0.1048,-0.1022,-0.0964,-0.0955,-0.0946,-0.099,-0.0985,-0.1053,-0.1053,-0.1053,0,-0.1969,-0.2084,-0.2122,-0.2232,-0.2257,-0.2243,-0.2323,-0.2302,-0.2257,-0.2195,-0.2047,-0.1926,-0.1737,-0.1526,-0.1416,-0.1441,-0.1172,-0.1193,-0.1189,-0.1175,-0.1117,-0.1105,-0.1093,-0.1251,-0.1252,-0.1254,0,0,-0.2039,-0.2123,-0.2237,-0.2262,-0.2286,-0.2331,-0.2322,-0.2339,-0.2283,-0.2243,-0.2136,-0.1982,-0.18,-0.1697,-0.1524,-0.1328,-0.1327,-0.1224,-0.1214,-0.1207,-0.119,-0.113,-0.1116,-0.1258,-0.1259,-0.1259,0,0,-0.2043,-0.2229,-0.2299,-0.235,-0.2374,-0.2408,-0.2364,-0.2397,-0.2288,-0.2268,-0.2164,-0.2115,-0.1888,-0.1798,-0.1882,-0.1529,-0.156,-0.1538,-0.1606,-0.1592,-0.1582,-0.1611,-0.1842,0,0,0,0,0,-0.2222,-0.2225,-0.229,-0.2315,-0.241,-0.2406,-0.2401,-0.2408,-0.2439,-0.2394,-0.2285,-0.2232,-0.1817,-0.1889,-0.1836,-0.1731,-0.1322,-0.1311,-0.13,-0.1337,-0.1324,-0.1313,0,0,0,0,0,0,-0.2233,-0.2268,-0.2287,-0.2345,-0.2365,-0.2407,-0.2454,-0.2453,-0.2441,-0.2441,-0.2262,-0.2227,-0.2138,-0.1908,-0.1862,-0.1764,-0.1857,-0.1318,-0.1308,-0.1299,-0.1333,-0.1322,-0.1313,0,0,0,0,0,-0.2241,-0.2269,-0.2449,-0.2339,-0.2356,-0.2375,-0.2454,-0.2453,-0.2427,-0.2295,-0.2266,-0.2435,-0.2141,-0.2091,-0.188,-0.1787,-0.1888,-0.1872,-0.1311,-0.1304,-0.1297,-0.1328,0,0,0,0,0,0,-0.2247,-0.2222,-0.2449,-0.2449,-0.2352,-0.2367,-0.238,-0.2454,-0.2275,-0.2256,-0.2459,-0.246,-0.2142,-0.2103,-0.2066,-0.1801,-0.1914,-0.1897,-0.1886,-0.1306,-0.13,-0.1295,0,0,0,0,0,0,-0.2207,-0.2224,-0.2448,-0.2465,-0.2467,-0.236,-0.2373,-0.2195,-0.2264,-0.2442,-0.2444,-0.246,-0.2129,-0.2111,-0.2081,-0.1808,-0.1933,-0.1917,-0.1905,-0.1898,-0.1301,-0.1296,0,0,0,0,0,0,-0.2212,-0.2226,-0.2464,-0.2466,-0.2467,-0.2462,-0.2187,-0.2236,-0.2444,-0.2442,-0.2448,-0.2449,-0.2132,-0.2106,-0.2093,-0.1833,-0.1814,-0.1933,-0.1921,-0.1914,-0.1908,0,0,0,0,0,0,0,-0.2215,-0.2153,-0.2461,-0.2466,-0.2467,-0.2457,-0.2456,-0.2454,-0.2445,-0.2446,-0.2447,-0.2448,-0.2026,-0.2008,-0.199,-0.1853,0,0,-0.1934,-0.1926,0,0,0,0,0,0,0,0,-0.2144,-0.2151,-0.2461,-0.2462,-0.2463,-0.2457,-0.2456,-0.2455,-0.2445,-0.2446,-0.2447,-0.2448,-0.2021,-0.2007,-0.1992,0,0,0,0,0,0,0,0,0,0,0,0,0,0,0,-0.2462,-0.2462,0,-0.2457,-0.2456,-0.2455,-0.2445,-0.2446,-0.2447,-0.2447,-0.2017,-0.2005,-0.1993,0,0,0,0,0,0,0,0,0,0,0,0,0,0,0,0,0,0,0,0,0,0,0,0,0,0,0,0,0,0,0,0,0,0,0,0,0,0,0,0,0,0,0,0,0,0,0,0,0,0,0,0,0,0,0,0,0,0,0,0,0,0,0,0,0,0,0,0,0]}]],[[{"header":{"parameterUnit":"kt","parameterCategory":2,"dx":1,"dy":1,"la1":30.253999710083008,"la2":30.299108505249023,"lo1":-89.0895004272461,"lo2":-89.04439544677734,"nx":28,"ny":28,"refTime":"2022-10-18T21:00:00:Z","depth":"2","parameterNumber":2,"parameterNumberName":"U-component_of_CURRENTS"},"data":[-0.1279,-0.1187,-0.1189,-0.1122,-0.1117,-0.1076,-0.1071,-0.1181,-0.1353,-0.162,-0.1775,-0.2167,-0.2016,-0.1665,-0.1487,-0.1223,-0.1195,-0.1143,-0.1891,-0.1436,-0.1447,-0.1343,-0.1243,0,0,0,0,0,-0.1376,-0.1334,-0.1302,-0.126,-0.1248,-0.1272,-0.1283,-0.1316,-0.1433,-0.171,-0.1944,-0.1878,-0.1929,-0.1878,-0.1669,-0.1707,-0.1485,-0.1552,-0.1143,-0.1158,-0.117,-0.1091,-0.1032,-0.103,-0.1028,-0.1027,0,0,-0.1533,-0.1475,-0.1448,-0.1414,-0.1405,-0.139,-0.1362,-0.1454,-0.1528,-0.1707,-0.1836,-0.2008,-0.1988,-0.2228,-0.2127,-0.1981,-0.2143,-0.1885,-0.1871,-0.1862,-0.1836,-0.1881,-0.1966,-0.197,-0.1973,-0.1977,-0.198,0,-0.164,-0.1631,-0.1602,-0.157,-0.1544,-0.1525,-0.1528,-0.1543,-0.1618,-0.1699,-0.1802,-0.1912,-0.2087,-0.206,-0.2256,-0.2208,-0.191,-0.1945,-0.2194,-0.137,-0.1396,-0.1374,-0.1374,-0.1393,-0.1395,-0.1395,-0.1396,-0.1396,-0.1731,-0.172,-0.1704,-0.1683,-0.1677,-0.1657,-0.1642,-0.1687,-0.1696,-0.1771,-0.1759,-0.1852,-0.194,-0.2081,-0.208,-0.2177,-0.2096,-0.1946,-0.1793,-0.2044,-0.2029,-0.2012,-0.1996,-0.1408,-0.1406,-0.1405,-0.1404,0,-0.1746,-0.1787,-0.1769,-0.178,-0.1774,-0.1742,-0.1754,-0.1744,-0.1779,-0.1764,-0.1756,-0.1764,-0.1816,-0.1823,-0.1786,-0.1809,-0.1844,-0.1907,-0.1608,-0.1583,-0.1958,-0.1952,-0.2127,-0.2135,-0.2143,-0.2149,-0.2154,0,-0.1796,-0.1794,-0.1819,-0.1813,-0.1791,-0.1816,-0.1801,-0.1784,-0.1789,-0.1773,-0.1756,-0.1738,-0.1647,-0.166,-0.1622,-0.1711,-0.1607,-0.1713,-0.1719,-0.1397,-0.139,-0.142,-0.1413,-0.1467,-0.1466,-0.1465,-0.1464,0,-0.1806,-0.1821,-0.1837,-0.1834,-0.184,-0.1833,-0.1828,-0.1803,-0.1786,-0.1754,-0.1753,-0.1685,-0.1639,-0.1601,-0.1565,-0.1505,-0.1551,-0.1448,-0.1649,-0.1665,-0.1377,-0.137,-0.1463,-0.1463,-0.1463,-0.1462,-0.1462,0,-0.1829,-0.1831,-0.1847,-0.1853,-0.1856,-0.1846,-0.1826,-0.1808,-0.1764,-0.1744,-0.1698,-0.1642,-0.1577,-0.1536,-0.1477,-0.1454,-0.1443,-0.1409,-0.1411,-0.1592,-0.1564,-0.1404,-0.1394,-0.1447,-0.1446,-0.1445,-0.1445,0,-0.1835,-0.1843,-0.185,-0.1848,-0.1847,-0.1831,-0.1816,-0.1778,-0.1749,-0.1719,-0.1635,-0.1571,-0.1516,-0.1472,-0.1444,-0.136,-0.1381,-0.1345,-0.1343,-0.1345,-0.1575,-0.1624,-0.1286,-0.1384,-0.1435,-0.1436,-0.1437,0,-0.1826,-0.1844,-0.1841,-0.1842,-0.1827,-0.1812,-0.1793,-0.1763,-0.1744,-0.1687,-0.1663,-0.1535,-0.1507,-0.1447,-0.1366,-0.1343,-0.1369,-0.1308,-0.1306,-0.1414,-0.1378,-0.1585,-0.1612,-0.1304,-0.1304,-0.1304,-0.1429,0,-0.1826,-0.1831,-0.1835,-0.1828,-0.1819,-0.1811,-0.1783,-0.1753,-0.1723,-0.169,-0.1611,-0.1534,-0.1455,-0.1393,-0.1349,-0.129,-0.1305,-0.1249,-0.1281,-0.1253,-0.1308,-0.1314,-0.1226,-0.1225,-0.1224,-0.1224,0,0,-0.1815,-0.1822,-0.1811,-0.1806,-0.1809,-0.178,-0.1779,-0.1738,-0.1689,-0.1669,-0.1663,-0.1513,-0.1449,-0.1357,-0.1335,-0.1279,-0.1289,-0.1299,-0.1242,-0.1244,-0.1246,-0.1299,-0.1306,-0.1222,-0.1222,-0.1222,-0.1222,0,-0.1807,-0.1808,-0.1814,-0.18,-0.1795,-0.1779,-0.1771,-0.1739,-0.1712,-0.1664,-0.1614,-0.1554,-0.145,-0.1399,-0.1349,-0.1278,-0.1282,-0.1218,-0.1259,-0.1236,-0.1239,-0.1242,-0.1295,-0.1302,-0.122,-0.122,-0.122,0,-0.1794,-0.1795,-0.18,-0.179,-0.1785,-0.1777,-0.1756,-0.1739,-0.1715,-0.1672,-0.1632,-0.157,-0.1482,-0.1416,-0.1377,-0.1383,-0.1301,-0.1282,-0.1282,-0.1313,-0.129,-0.1292,-0.1293,-0.1285,-0.1286,-0.1287,0,0,-0.1785,-0.1786,-0.1785,-0.1791,-0.1794,-0.1764,-0.1751,-0.1734,-0.17,-0.1677,-0.1643,-0.1579,-0.1506,-0.1477,-0.1416,-0.1347,-0.1361,-0.1296,-0.1293,-0.1291,-0.132,-0.1297,-0.1297,-0.129,-0.129,-0.1291,0,0,-0.1781,-0.1788,-0.1793,-0.18,-0.1788,-0.1761,-0.1758,-0.1727,-0.1675,-0.1675,-0.1635,-0.1624,-0.1555,-0.1512,-0.1562,-0.1415,-0.1417,-0.1406,-0.1475,-0.1471,-0.1467,-0.1526,-0.1556,0,0,0,0,0,-0.1786,-0.179,-0.1795,-0.1799,-0.1783,-0.1761,-0.1753,-0.1742,-0.1726,-0.1706,-0.167,-0.1655,-0.1527,-0.1573,-0.1556,-0.1517,-0.1333,-0.1326,-0.1318,-0.1389,-0.1384,-0.138,0,0,0,0,0,0,-0.1788,-0.1791,-0.1796,-0.1776,-0.1774,-0.176,-0.1762,-0.1755,-0.173,-0.1728,-0.1662,-0.1654,-0.1637,-0.1579,-0.1564,-0.1528,-0.156,-0.133,-0.1324,-0.1318,-0.1387,-0.1383,-0.138,0,0,0,0,0,-0.1789,-0.1792,-0.178,-0.1774,-0.1772,-0.1761,-0.1762,-0.1756,-0.1714,-0.1695,-0.1685,-0.1712,-0.1636,-0.1622,-0.157,-0.1535,-0.157,-0.1565,-0.1326,-0.1321,-0.1316,-0.1385,0,0,0,0,0,0,-0.179,-0.1752,-0.1777,-0.1775,-0.1793,-0.176,-0.1756,-0.1758,-0.168,-0.1674,-0.1747,-0.1747,-0.1636,-0.1625,-0.1614,-0.1539,-0.1578,-0.1573,-0.1569,-0.1322,-0.1318,-0.1315,0,0,0,0,0,0,-0.1752,-0.175,-0.1775,-0.1799,-0.1799,-0.1759,-0.1756,-0.1698,-0.1678,-0.1732,-0.1733,-0.1748,-0.166,-0.1627,-0.1618,-0.1525,-0.1584,-0.1579,-0.1576,-0.1573,-0.1319,-0.1316,0,0,0,0,0,0,-0.175,-0.1748,-0.1798,-0.1798,-0.1797,-0.1758,-0.1703,-0.1683,-0.1717,-0.1733,-0.1721,-0.1723,-0.1663,-0.1653,-0.1621,-0.1532,-0.1527,-0.1584,-0.1581,-0.1578,-0.1577,0,0,0,0,0,0,0,-0.1749,-0.1773,-0.181,-0.1797,-0.1796,-0.1758,-0.1756,-0.1753,-0.1718,-0.1719,-0.1721,-0.1722,-0.1614,-0.1608,-0.1602,-0.1537,0,0,-0.1585,-0.1582,0,0,0,0,0,0,0,0,-0.1773,-0.1773,-0.181,-0.1811,-0.1811,-0.1758,-0.1756,-0.1754,-0.1718,-0.1719,-0.172,-0.1722,-0.1612,-0.1608,-0.1603,0,0,0,0,0,0,0,0,0,0,0,0,0,0,0,-0.181,-0.1811,0,-0.1758,-0.1756,-0.1754,-0.1718,-0.1719,-0.172,-0.1721,-0.1611,-0.1607,-0.1603,0,0,0,0,0,0,0,0,0,0,0,0,0,0,0,0,0,0,0,0,0,0,0,0,0,0,0,0,0,0,0,0,0,0,0,0,0,0,0,0,0,0,0,0,0,0,0,0,0,0,0,0,0,0,0,0,0,0,0,0,0,0,0,0,0,0,0,0,0]}],[{"header":{"parameterUnit":"kt","parameterCategory":2,"dx":1,"dy":1,"la1":30.253999710083008,"la2":30.299108505249023,"lo1":-89.0895004272461,"lo2":-89.04439544677734,"nx":28,"ny":28,"refTime":"2022-10-18T21:00:00:Z","depth":"2","parameterNumber":3,"parameterNumberName":"V-component_of_CURRENTS"},"data":[-0.1001,-0.109,-0.1142,-0.1307,-0.138,-0.1523,-0.1595,-0.1703,-0.1618,-0.1468,-0.1147,-0.0745,-0.0104,0.0255,0.0555,0.0714,0.0552,0.069,0.0617,0.0407,0.0372,0.0549,0.0635,0,0,0,0,0,-0.098,-0.1051,-0.1108,-0.1213,-0.1291,-0.1304,-0.1409,-0.1488,-0.1591,-0.1458,-0.1407,-0.0777,-0.0283,0.0087,0.0596,0.0872,0.0792,0.0796,0.0667,0.0639,0.0612,0.068,0.0902,0.0901,0.0899,0.0898,0,0,-0.0964,-0.1001,-0.1061,-0.1123,-0.1174,-0.1265,-0.1314,-0.1369,-0.1421,-0.1449,-0.1365,-0.1129,-0.0665,0.0051,0.0236,0.0468,0.0495,0.0565,0.0547,0.0525,0.0598,0.0577,0.0795,0.0794,0.0792,0.0792,0.0791,0,-0.0974,-0.0998,-0.1011,-0.1082,-0.1115,-0.1151,-0.1176,-0.121,-0.1221,-0.1217,-0.1251,-0.1171,-0.0815,-0.0437,-0.0022,0.0121,0.0153,0.026,-0.0022,0.0266,0.0229,0.0216,0.019,0.0377,0.0373,0.037,0.0368,0.0367,-0.1001,-0.1007,-0.1033,-0.106,-0.1059,-0.1059,-0.1082,-0.1051,-0.1077,-0.1066,-0.1088,-0.0981,-0.0905,-0.0631,-0.0298,-0.0044,-0.0165,0.0158,0.0262,-0.0016,-0.0025,-0.0042,-0.0057,0.0327,0.0332,0.0337,0.034,0,-0.102,-0.1041,-0.1044,-0.1042,-0.1041,-0.1033,-0.1032,-0.1031,-0.0987,-0.0991,-0.0964,-0.0889,-0.0794,-0.0652,-0.0514,-0.0349,-0.0208,-0.0141,-0.0126,-0.0105,-0.008,-0.0089,0.008,0.0085,0.009,0.0094,0.0098,0,-0.1053,-0.1043,-0.1073,-0.1067,-0.105,-0.105,-0.1016,-0.0985,-0.095,-0.0949,-0.0833,-0.0818,-0.0656,-0.0591,-0.0502,-0.0335,-0.0395,-0.0175,-0.0164,-0.0115,-0.0103,-0.0324,-0.0331,-0.0264,-0.0264,-0.0264,-0.0264,0,-0.1081,-0.1096,-0.1087,-0.1092,-0.1096,-0.1069,-0.105,-0.1005,-0.0993,-0.0894,-0.0882,-0.0723,-0.0673,-0.0565,-0.0492,-0.049,-0.0396,-0.0382,-0.0215,-0.0212,-0.0097,-0.0083,-0.0264,-0.0264,-0.0264,-0.0264,-0.0264,0,-0.1119,-0.1141,-0.1131,-0.1131,-0.1124,-0.1107,-0.1062,-0.1042,-0.0971,-0.0947,-0.084,-0.0773,-0.0641,-0.0633,-0.0492,-0.0528,-0.0479,-0.0448,-0.0447,-0.0277,-0.0308,-0.0197,-0.0156,-0.0498,-0.0499,-0.0501,-0.0502,0,-0.1128,-0.1152,-0.1184,-0.1164,-0.1162,-0.1158,-0.1138,-0.1095,-0.1065,-0.1023,-0.09,-0.0805,-0.0759,-0.0698,-0.0627,-0.0551,-0.0504,-0.0538,-0.0474,-0.0473,-0.0299,-0.0277,-0.0193,-0.0186,-0.0517,-0.0515,-0.0514,0,-0.1156,-0.1217,-0.1217,-0.1228,-0.1238,-0.122,-0.1189,-0.1142,-0.1106,-0.1073,-0.1011,-0.0837,-0.0798,-0.0711,-0.0635,-0.0581,-0.0538,-0.0584,-0.058,-0.0552,-0.0462,-0.0321,-0.0299,-0.0511,-0.0508,-0.0506,-0.0526,0,-0.1175,-0.1221,-0.1219,-0.1281,-0.1269,-0.1239,-0.1223,-0.1219,-0.1204,-0.1159,-0.1057,-0.0961,-0.0836,-0.0799,-0.074,-0.0614,-0.0648,-0.0622,-0.0555,-0.0589,-0.0609,-0.06,-0.0701,-0.07,-0.07,-0.0699,0,0,-0.1176,-0.1251,-0.1313,-0.1329,-0.1301,-0.1293,-0.1271,-0.1237,-0.1198,-0.1163,-0.1183,-0.0991,-0.0887,-0.0711,-0.0713,-0.0704,-0.0701,-0.0618,-0.0613,-0.0604,-0.0595,-0.0612,-0.0604,-0.0698,-0.0698,-0.0698,-0.0698,0,-0.1207,-0.1286,-0.1328,-0.1335,-0.1311,-0.1271,-0.1293,-0.1244,-0.121,-0.1188,-0.1089,-0.1017,-0.0901,-0.0766,-0.0682,-0.0711,-0.0593,-0.0691,-0.0678,-0.0612,-0.0604,-0.0596,-0.0612,-0.0605,-0.0697,-0.0697,-0.0697,0,-0.1232,-0.1277,-0.1313,-0.1361,-0.1313,-0.1289,-0.1259,-0.1204,-0.1176,-0.1086,-0.1034,-0.0956,-0.0826,-0.0728,-0.0688,-0.0671,-0.0543,-0.0566,-0.0571,-0.0523,-0.045,-0.0444,-0.0438,-0.0495,-0.0494,-0.0493,0,0,-0.1252,-0.1331,-0.1333,-0.1362,-0.1351,-0.1286,-0.1246,-0.1199,-0.1141,-0.1114,-0.1034,-0.0937,-0.0824,-0.0772,-0.0669,-0.0605,-0.0562,-0.0538,-0.0548,-0.0555,-0.0512,-0.0443,-0.0438,-0.0489,-0.0489,-0.0489,0,0,-0.1219,-0.1283,-0.1308,-0.1345,-0.1327,-0.1217,-0.1161,-0.115,-0.1093,-0.1061,-0.0937,-0.0903,-0.0824,-0.0768,-0.0744,-0.0588,-0.0559,-0.0561,-0.0577,-0.0587,-0.0597,-0.0556,-0.0544,0,0,0,0,0,-0.1268,-0.1296,-0.1322,-0.1324,-0.1282,-0.124,-0.1215,-0.1111,-0.1088,-0.1092,-0.1024,-0.0884,-0.0731,-0.0706,-0.0668,-0.0579,-0.0441,-0.0449,-0.0457,-0.0463,-0.0476,-0.0487,0,0,0,0,0,0,-0.1269,-0.1283,-0.1316,-0.1232,-0.1217,-0.1238,-0.1146,-0.1117,-0.1086,-0.1076,-0.0908,-0.0877,-0.0748,-0.0711,-0.068,-0.0597,-0.0554,-0.0444,-0.0451,-0.0458,-0.0468,-0.0478,-0.0487,0,0,0,0,0,-0.1269,-0.1279,-0.128,-0.1223,-0.1211,-0.1079,-0.1146,-0.1121,-0.1103,-0.0909,-0.0878,-0.1034,-0.0751,-0.0717,-0.0691,-0.0614,-0.0574,-0.0563,-0.0449,-0.0455,-0.046,-0.0473,0,0,0,0,0,0,-0.1268,-0.1218,-0.1269,-0.1254,-0.1226,-0.1073,-0.1064,-0.1126,-0.0935,-0.0906,-0.1023,-0.1017,-0.0752,-0.0726,-0.0701,-0.0627,-0.059,-0.0579,-0.0572,-0.0453,-0.0458,-0.0462,0,0,0,0,0,0,-0.1209,-0.1209,-0.1261,-0.1273,-0.1257,-0.1069,-0.1061,-0.0954,-0.0933,-0.1059,-0.1048,-0.1022,-0.0782,-0.0732,-0.0712,-0.0545,-0.0602,-0.0592,-0.0585,-0.058,-0.0457,-0.046,0,0,0,0,0,0,-0.1203,-0.1201,-0.1276,-0.1264,-0.1251,-0.1068,-0.0964,-0.0924,-0.0962,-0.1068,-0.0961,-0.096,-0.079,-0.0768,-0.072,-0.0563,-0.055,-0.0602,-0.0595,-0.059,-0.0586,0,0,0,0,0,0,0,-0.1198,-0.1283,-0.1363,-0.1257,-0.1245,-0.1111,-0.1107,-0.1102,-0.0962,-0.0961,-0.0961,-0.096,-0.0661,-0.065,-0.0639,-0.0577,0,0,-0.0603,-0.0598,0,0,0,0,0,0,0,0,-0.1276,-0.1281,-0.1363,-0.1359,-0.1356,-0.111,-0.1107,-0.1103,-0.0962,-0.0961,-0.0961,-0.0961,-0.0658,-0.0649,-0.064,0,0,0,0,0,0,0,0,0,0,0,0,0,0,0,-0.1362,-0.136,0,-0.111,-0.1107,-0.1104,-0.0962,-0.0961,-0.0961,-0.0961,-0.0656,-0.0648,-0.0641,0,0,0,0,0,0,0,0,0,0,0,0,0,0,0,0,0,0,0,0,0,0,0,0,0,0,0,0,0,0,0,0,0,0,0,0,0,0,0,0,0,0,0,0,0,0,0,0,0,0,0,0,0,0,0,0,0,0,0,0,0,0,0,0,0,0,0,0,0]}]],[[{"header":{"parameterUnit":"kt","parameterCategory":2,"dx":1,"dy":1,"la1":30.253999710083008,"la2":30.299108505249023,"lo1":-89.0895004272461,"lo2":-89.04439544677734,"nx":28,"ny":28,"refTime":"2022-10-18T21:00:00:Z","depth":"4","parameterNumber":2,"parameterNumberName":"U-component_of_CURRENTS"},"data":[-0.0874,-0.0876,-0.0923,-0.0825,-0.0837,-0.0818,-0.0873,-0.0969,-0.0987,-0.1166,-0.1198,-0.1333,-0.139,-0.1486,-0.1455,-0.147,-0.1518,-0.1625,-0.162,-0.1784,-0.1803,-0.1821,-0.1891,0,0,0,0,0,-0.0941,-0.0954,-0.0979,-0.1113,-0.1072,-0.1155,-0.1202,-0.1288,-0.1444,-0.1299,-0.1494,-0.144,-0.148,-0.1539,-0.149,-0.1609,-0.1704,-0.1543,-0.1673,-0.1796,-0.1818,-0.1879,0,0,0,0,0,0,-0.1024,-0.1098,-0.1197,-0.134,-0.1359,-0.1351,-0.1486,-0.1453,-0.1492,-0.163,-0.1581,-0.167,-0.1765,-0.1747,-0.1722,-0.1712,-0.172,-0.1686,-0.1712,-0.1733,-0.176,-0.1694,-0.1404,0,0,0,0,0,-0.1115,-0.1244,-0.1358,-0.1518,-0.1623,-0.1696,-0.1816,-0.1799,-0.1897,-0.2,-0.192,-0.1944,-0.1842,-0.1883,-0.185,-0.1837,-0.2043,-0.1929,-0.1942,-0.2057,-0.2026,-0.2043,-0.2066,-0.19,-0.1902,-0.1904,-0.1905,0,-0.1175,-0.1263,-0.1598,-0.1652,-0.1861,-0.2089,-0.2125,-0.2346,-0.2277,-0.235,-0.2211,-0.2211,-0.2203,-0.2019,-0.2108,-0.2072,-0.2063,-0.1985,-0.2108,-0.2062,-0.207,-0.2089,-0.2106,-0.1922,-0.1921,-0.192,-0.1918,0,-0.1202,-0.1363,-0.1574,-0.1926,-0.203,-0.2201,-0.242,-0.2423,-0.2588,-0.2504,-0.2496,-0.2508,-0.2423,-0.2457,-0.2406,-0.2335,-0.2267,-0.2186,-0.2362,-0.2371,-0.2131,-0.2141,-0.1951,-0.1945,-0.1939,-0.1935,-0.1931,0,-0.1294,-0.1433,-0.1717,-0.1828,-0.2061,-0.2246,-0.2436,-0.2614,-0.2713,-0.2654,-0.275,-0.2671,-0.2722,-0.265,-0.2624,-0.244,-0.2512,-0.2359,-0.2346,-0.2584,-0.2591,-0.2579,-0.2588,-0.2522,-0.2524,-0.2525,-0.2526,0,-0.1287,-0.1557,-0.1694,-0.1795,-0.2094,-0.2285,-0.2445,-0.2657,-0.2692,-0.2809,-0.2789,-0.2823,-0.2755,-0.2737,-0.2645,-0.2681,-0.2542,-0.2612,-0.2417,-0.2405,-0.259,-0.2596,-0.2528,-0.2528,-0.2528,-0.2529,-0.253,0,-0.1385,-0.1507,-0.1703,-0.193,-0.2016,-0.2191,-0.2458,-0.2572,-0.2756,-0.2809,-0.2836,-0.2834,-0.2824,-0.2799,-0.2727,-0.2761,-0.2692,-0.2673,-0.2668,-0.2535,-0.2559,-0.2488,-0.2595,-0.2596,-0.2598,-0.2599,-0.26,0,-0.1343,-0.1518,-0.1606,-0.1818,-0.1959,-0.2116,-0.2323,-0.2445,-0.2553,-0.271,-0.2722,-0.2814,-0.2792,-0.2801,-0.2795,-0.278,-0.2741,-0.2804,-0.2718,-0.2714,-0.2458,-0.2516,-0.2803,-0.262,-0.2618,-0.2616,-0.2615,0,-0.1272,-0.1486,-0.1521,-0.1618,-0.1809,-0.186,-0.2104,-0.2252,-0.2368,-0.2533,-0.2638,-0.2792,-0.2749,-0.2811,-0.2832,-0.2838,-0.2765,-0.2818,-0.2818,-0.2601,-0.269,-0.2555,-0.253,-0.2808,-0.2807,-0.2806,-0.2629,0,-0.1338,-0.1421,-0.1492,-0.1629,-0.1701,-0.1798,-0.1916,-0.209,-0.2202,-0.2243,-0.2428,-0.2528,-0.2673,-0.2764,-0.2757,-0.283,-0.2793,-0.2838,-0.2717,-0.285,-0.2771,-0.276,-0.2891,-0.2892,-0.2892,-0.2892,0,0,-0.1272,-0.1316,-0.1336,-0.144,-0.151,-0.155,-0.1653,-0.1757,-0.1928,-0.2008,-0.2057,-0.2377,-0.246,-0.2583,-0.267,-0.2773,-0.2734,-0.2705,-0.2861,-0.2858,-0.2855,-0.2779,-0.2769,-0.2892,-0.2892,-0.2892,-0.2892,0,-0.1255,-0.1286,-0.1319,-0.1389,-0.1451,-0.1498,-0.1528,-0.1656,-0.1747,-0.1935,-0.2006,-0.2133,-0.2399,-0.2465,-0.2519,-0.2755,-0.2652,-0.2865,-0.2865,-0.2864,-0.286,-0.2857,-0.2782,-0.2772,-0.2893,-0.2893,-0.2893,0,-0.1239,-0.1231,-0.1228,-0.1258,-0.1335,-0.1443,-0.1405,-0.1474,-0.1565,-0.1597,-0.1893,-0.1969,-0.209,-0.2288,-0.239,-0.2365,-0.256,-0.2586,-0.2595,-0.253,-0.252,-0.2522,-0.2524,-0.2461,-0.2458,-0.2456,0,0,-0.1235,-0.1229,-0.1248,-0.1253,-0.1317,-0.1365,-0.1403,-0.1419,-0.1526,-0.1597,-0.1744,-0.1914,-0.2022,-0.2115,-0.2246,-0.2415,-0.2358,-0.2519,-0.254,-0.2555,-0.25,-0.2496,-0.2502,-0.2445,-0.2444,-0.2444,0,0,-0.1235,-0.1225,-0.1223,-0.1243,-0.1273,-0.1317,-0.1399,-0.1409,-0.1565,-0.1611,-0.1681,-0.1715,-0.1912,-0.1996,-0.1848,-0.2214,-0.2157,-0.2187,-0.2085,-0.2112,-0.2133,-0.2015,-0.1785,0,0,0,0,0,-0.1189,-0.1209,-0.1205,-0.1206,-0.1253,-0.1296,-0.1312,-0.1379,-0.1422,-0.1478,-0.1626,-0.1591,-0.1984,-0.1851,-0.1872,-0.1947,-0.2303,-0.2328,-0.2352,-0.2264,-0.2292,-0.2316,0,0,0,0,0,0,-0.1189,-0.1189,-0.1205,-0.1234,-0.1244,-0.1296,-0.1321,-0.1343,-0.1419,-0.1434,-0.1571,-0.1592,-0.1631,-0.1838,-0.1857,-0.1929,-0.1778,-0.2313,-0.2334,-0.2353,-0.2274,-0.2297,-0.2317,0,0,0,0,0,-0.1189,-0.1189,-0.124,-0.1237,-0.1246,-0.132,-0.1324,-0.1342,-0.1442,-0.1491,-0.1518,-0.1492,-0.1628,-0.1653,-0.1849,-0.1921,-0.1765,-0.1772,-0.2327,-0.2344,-0.2359,-0.2285,0,0,0,0,0,0,-0.1189,-0.1244,-0.1245,-0.1251,-0.1244,-0.1324,-0.1338,-0.1341,-0.1501,-0.1522,-0.1408,-0.1416,-0.1626,-0.1645,-0.1664,-0.192,-0.1754,-0.1761,-0.1766,-0.234,-0.2353,-0.2364,0,0,0,0,0,0,-0.1243,-0.1249,-0.1249,-0.1254,-0.1262,-0.1327,-0.1339,-0.1409,-0.1504,-0.1415,-0.1422,-0.1409,-0.1598,-0.164,-0.1655,-0.1762,-0.1745,-0.1753,-0.1757,-0.1761,-0.235,-0.2361,0,0,0,0,0,0,-0.1248,-0.1253,-0.1254,-0.1261,-0.1268,-0.1358,-0.1395,-0.1454,-0.1465,-0.141,-0.147,-0.1472,-0.1591,-0.1608,-0.1648,-0.1748,-0.1758,-0.1746,-0.175,-0.1754,-0.1756,0,0,0,0,0,0,0,-0.1252,-0.119,-0.1186,-0.1266,-0.1273,-0.1303,-0.1307,-0.1311,-0.1466,-0.1468,-0.1469,-0.1471,-0.1705,-0.1713,-0.172,-0.1737,0,0,-0.1745,-0.1748,0,0,0,0,0,0,0,0,-0.119,-0.119,-0.1186,-0.1186,-0.1186,-0.1304,-0.1307,-0.131,-0.1466,-0.1468,-0.1469,-0.147,-0.1707,-0.1713,-0.172,0,0,0,0,0,0,0,0,0,0,0,0,0,0,0,-0.1186,-0.1186,0,-0.1304,-0.1307,-0.131,-0.1466,-0.1467,-0.1469,-0.147,-0.1709,-0.1714,-0.1719,0,0,0,0,0,0,0,0,0,0,0,0,0,0,0,0,0,0,0,0,0,0,0,0,0,0,0,0,0,0,0,0,0,0,0,0,0,0,0,0,0,0,0,0,0,0,0,0,0,0,0,0,0,0,0,0,0,0,0,0,0,0,0,0,0,0,0,0,0]}],[{"header":{"parameterUnit":"kt","parameterCategory":2,"dx":1,"dy":1,"la1":30.253999710083008,"la2":30.299108505249023,"lo1":-89.0895004272461,"lo2":-89.04439544677734,"nx":28,"ny":28,"refTime":"2022-10-18T21:00:00:Z","depth":"4","parameterNumber":3,"parameterNumberName":"V-component_of_CURRENTS"},"data":[-0.0009,0.0013,0.0027,0.0067,0.0097,0.0023,-0.0067,-0.0125,-0.0079,-0.0057,0.0148,0.0219,0.0582,0.049,0.0928,0.098,0.1213,0.1333,0.1334,0.1759,0.178,0.1799,0.1757,0,0,0,0,0,-0.0047,0.0,-0.0005,0.0017,-0.0034,-0.0039,-0.0179,-0.024,-0.0262,-0.0162,-0.008,0.0159,0.0514,0.0674,0.0879,0.0929,0.1388,0.1161,0.1513,0.1772,0.1796,0.1747,0,0,0,0,0,0,-0.008,-0.007,-0.005,-0.003,-0.0068,-0.0131,-0.0184,-0.0167,-0.0175,-0.0072,-0.0023,0.0272,0.0432,0.0738,0.1002,0.122,0.1377,0.1473,0.1511,0.1536,0.1448,0.1188,0.1058,0,0,0,0,0,-0.0081,-0.0071,-0.009,-0.007,-0.0074,-0.0148,-0.0133,-0.0168,-0.0119,-0.0079,0.0078,0.0299,0.0496,0.0879,0.1065,0.1431,0.1748,0.1735,0.1755,0.1979,0.182,0.1829,0.1829,0.1884,0.1887,0.1889,0.189,0,-0.0041,-0.0068,-0.0089,-0.0089,-0.0058,-0.0053,-0.004,0.0007,0.0014,0.0127,0.015,0.0341,0.0528,0.0915,0.1275,0.1683,0.1771,0.1791,0.2029,0.1856,0.1861,0.1855,0.1849,0.1909,0.1907,0.1906,0.1904,0,-0.0001,-0.0011,-0.0061,-0.0032,-0.0028,-0.0012,0.0022,0.0046,0.0164,0.023,0.0284,0.05,0.0767,0.1081,0.1522,0.1656,0.1954,0.1979,0.1965,0.1976,0.1891,0.1877,0.1939,0.1933,0.1927,0.1922,0.1918,0,0.0057,0.0014,0.0015,0.0008,0.0002,0.0061,0.0101,0.0209,0.0343,0.0391,0.0613,0.0721,0.1141,0.1331,0.164,0.1844,0.1971,0.2079,0.2089,0.2252,0.2237,0.2158,0.213,0.2405,0.2405,0.2405,0.2405,0,0.012,0.0083,0.004,0.0052,0.009,0.0143,0.019,0.0371,0.0406,0.0616,0.0684,0.0997,0.1101,0.1442,0.1694,0.1774,0.2049,0.2171,0.2096,0.2075,0.2149,0.212,0.2406,0.2406,0.2406,0.2406,0.2406,0,0.0195,0.0173,0.0132,0.0129,0.0154,0.0168,0.0307,0.0337,0.0558,0.0675,0.0902,0.1025,0.1296,0.1416,0.1768,0.1739,0.1882,0.2044,0.2048,0.1748,0.1712,0.1738,0.2013,0.2011,0.2009,0.2007,0.2005,0,0.0263,0.0211,0.0247,0.0212,0.0223,0.0321,0.0403,0.0469,0.0604,0.0742,0.0986,0.1107,0.1245,0.1347,0.1586,0.1718,0.1889,0.182,0.1891,0.1886,0.1666,0.1875,0.2007,0.1975,0.1979,0.1981,0.1983,0,0.0325,0.0343,0.0352,0.0332,0.0397,0.0357,0.047,0.0522,0.0581,0.0782,0.0891,0.1143,0.1234,0.1274,0.1383,0.1606,0.1827,0.1631,0.1633,0.1583,0.2068,0.1858,0.1855,0.1981,0.1986,0.199,0.1963,0,0.0406,0.0389,0.0409,0.041,0.0409,0.0395,0.0434,0.051,0.0614,0.0639,0.0842,0.0954,0.1062,0.122,0.1212,0.1454,0.1393,0.143,0.1354,0.1554,0.1506,0.1524,0.1244,0.1239,0.1235,0.1231,0,0,0.0475,0.0427,0.0455,0.0446,0.044,0.0448,0.0419,0.0443,0.0433,0.0489,0.0556,0.0777,0.0826,0.0978,0.1086,0.1108,0.1134,0.1134,0.1453,0.1478,0.1501,0.1468,0.1489,0.1224,0.1223,0.1221,0.122,0,0.049,0.0518,0.0486,0.0474,0.0434,0.0411,0.042,0.0402,0.0434,0.0482,0.0503,0.0644,0.0744,0.0812,0.0849,0.1039,0.1027,0.1134,0.1265,0.1415,0.1446,0.1473,0.1447,0.147,0.121,0.121,0.1211,0,0.0541,0.0505,0.0481,0.0415,0.0404,0.0386,0.0357,0.0324,0.0311,0.0287,0.0393,0.0451,0.047,0.0612,0.0677,0.065,0.092,0.0853,0.0875,0.0784,0.0927,0.0963,0.0996,0.0572,0.0571,0.0569,0,0,0.0555,0.0529,0.0454,0.0406,0.0425,0.036,0.0333,0.0287,0.0271,0.0278,0.0327,0.0388,0.0434,0.0502,0.0509,0.0637,0.0588,0.0781,0.0811,0.0836,0.0763,0.0909,0.0945,0.0563,0.0563,0.0563,0,0,0.0547,0.048,0.0458,0.0417,0.0351,0.0259,0.0273,0.0237,0.0245,0.0279,0.0274,0.028,0.039,0.0384,0.0304,0.0585,0.0454,0.0467,0.0627,0.0663,0.0693,0.0597,0.0284,0,0,0,0,0,0.05,0.0485,0.0465,0.0447,0.0339,0.0259,0.0244,0.0211,0.0245,0.0239,0.0266,0.0266,0.0366,0.0292,0.0293,0.0482,0.0487,0.0501,0.0513,0.0741,0.078,0.0813,0,0,0,0,0,0,0.0492,0.0471,0.0465,0.0374,0.0348,0.026,0.026,0.025,0.0245,0.0248,0.0258,0.0263,0.0248,0.0291,0.0292,0.0475,0.0284,0.0492,0.0504,0.0514,0.0754,0.0786,0.0813,0,0,0,0,0,0.0485,0.0468,0.0315,0.0373,0.0351,0.0288,0.0263,0.0255,0.0269,0.0233,0.0238,0.0253,0.0245,0.025,0.0291,0.0478,0.0283,0.0283,0.05,0.0509,0.0517,0.077,0,0,0,0,0,0,0.048,0.046,0.0308,0.0298,0.04,0.0294,0.0281,0.0259,0.0257,0.0256,0.0224,0.0227,0.0243,0.0247,0.0251,0.0486,0.0282,0.0283,0.0283,0.0507,0.0514,0.052,0,0,0,0,0,0,0.0468,0.0453,0.0304,0.0339,0.0334,0.03,0.0288,0.0285,0.0262,0.0252,0.0251,0.0226,0.0277,0.0245,0.0248,0.0239,0.0282,0.0282,0.0282,0.0283,0.0513,0.0518,0,0,0,0,0,0,0.046,0.0447,0.0342,0.0338,0.0333,0.0223,0.0301,0.0222,0.0203,0.0257,0.0209,0.0212,0.0277,0.0278,0.0246,0.0235,0.0238,0.0282,0.0282,0.0282,0.0282,0,0,0,0,0,0,0,0.0454,0.0561,0.0361,0.0336,0.0332,0.0206,0.0204,0.0202,0.0204,0.0206,0.0209,0.0211,0.028,0.028,0.028,0.0232,0,0,0.0282,0.0282,0,0,0,0,0,0,0,0,0.0565,0.0562,0.0361,0.0359,0.0356,0.0206,0.0204,0.0202,0.0204,0.0206,0.0208,0.021,0.028,0.028,0.028,0,0,0,0,0,0,0,0,0,0,0,0,0,0,0,0.0361,0.0359,0,0.0205,0.0204,0.0203,0.0204,0.0206,0.0208,0.0209,0.028,0.028,0.028,0,0,0,0,0,0,0,0,0,0,0,0,0,0,0,0,0,0,0,0,0,0,0,0,0,0,0,0,0,0,0,0,0,0,0,0,0,0,0,0,0,0,0,0,0,0,0,0,0,0,0,0,0,0,0,0,0,0,0,0,0,0,0,0,0,0,0,0,0]}]]]